EDT,Max TemperatureF,Mean TemperatureF,Min TemperatureF,Max Dew PointF,MeanDew PointF,Min DewpointF,Max Humidity, Mean Humidity, Min Humidity, Max Sea Level PressureIn, Mean Sea Level PressureIn, Min Sea Level PressureIn, Max VisibilityMiles, Mean VisibilityMiles, Min VisibilityMiles, Max Wind SpeedMPH, Mean Wind SpeedMPH, Max Gust SpeedMPH,PrecipitationIn, CloudCover, Events, WindDirDegrees
2013-10-1,78,70,62,63,59,51,87,65,43,30.12,30.07,30.03,10,10,10,9,4,13,0.00,0,,23
2013-10-2,81,71,61,68,64,56,90,72,54,30.13,30.09,30.06,10,10,10,9,6,13,0.00,0,,260
2013-10-3,82,75,68,69,67,59,97,72,47,30.16,30.13,30.11,10,10,8,8,5,10,0.00,0,,248
2013-10-4,81,74,66,69,67,63,100,77,54,30.16,30.12,30.09,10,10,7,8,4,10,0.00,0,,225
2013-10-5,83,75,66,71,68,65,97,76,55,30.13,30.10,30.07,10,10,8,8,4,12,0.00,0,,233
2013-10-6,85,75,64,71,69,63,97,78,59,30.10,30.06,30.02,10,9,5,13,5,16,0.00,1,,154
2013-10-7,83,78,72,72,71,70,93,79,65,30.01,29.95,29.90,10,10,9,16,9,21,0.02,3,,181
2013-10-8,75,70,65,73,66,63,100,94,87,30.08,30.02,29.93,10,7,2,22,13,37,1.16,8,Rain,45
2013-10-9,73,70,66,72,69,64,100,97,93,30.01,29.90,29.84,10,3,0,23,12,40,6.30,8,Fog-Rain-Thunderstorm,49
2013-10-10,78,71,64,73,69,63,100,92,84,29.85,29.81,29.76,10,7,0,14,7,21,0.63,7,Fog-Rain,267
2013-10-11,70,67,64,64,63,62,100,91,81,29.94,29.88,29.82,10,8,2,12,7,18,0.02,8,Rain,287
2013-10-12,69,67,65,65,63,62,93,86,78,30.03,29.97,29.91,10,10,10,7,2,9,0.00,8,,305
2013-10-13,79,74,68,70,68,64,100,87,74,30.10,30.05,30.01,10,10,7,15,9,22,T,5,Rain,49
2013-10-14,75,72,68,68,66,63,97,88,78,30.12,30.09,30.07,10,9,7,18,12,32,0.00,7,,41
2013-10-15,76,72,68,70,67,64,97,88,79,30.08,30.01,29.96,10,10,9,17,10,29,0.00,6,,34
2013-10-16,75,72,68,70,67,66,97,91,84,29.98,29.95,29.93,10,10,10,13,7,20,0.00,7,,31
2013-10-17,75,71,66,67,65,64,93,83,73,29.97,29.93,29.88,10,10,8,13,5,17,0.00,3,,256
2013-10-18,73,69,65,69,64,60,100,87,73,30.01,29.98,29.88,10,8,1,12,6,16,0.38,7,Rain,23
2013-10-19,77,72,66,72,69,64,100,90,79,29.98,29.90,29.84,10,8,1,12,6,17,0.40,6,Rain,152
2013-10-20,71,65,58,69,56,49,93,78,63,30.12,30.01,29.86,10,10,8,15,8,25,T,4,Rain,21
2013-10-21,69,63,56,64,56,46,93,76,58,30.13,30.07,29.98,10,10,10,12,6,17,0.00,4,,37
2013-10-22,68,66,63,63,57,50,87,73,58,29.98,29.93,29.86,10,10,10,10,5,18,0.01,4,Rain,289
2013-10-23,70,64,58,62,58,45,100,78,55,29.91,29.74,29.63,10,8,2,17,8,25,0.51,6,Rain,266
2013-10-24,59,55,51,47,39,35,71,59,47,30.17,30.07,29.92,10,10,10,16,7,26,0.00,0,,308
2013-10-25,58,54,49,41,35,29,71,56,41,30.32,30.25,30.16,10,10,10,12,6,21,0.01,4,Rain,355
2013-10-26,63,58,52,47,42,37,72,62,52,30.31,30.22,30.11,10,10,10,9,6,,0.00,0,,324
2013-10-27,65,56,47,48,44,38,83,65,47,30.17,30.10,30.06,10,10,10,15,5,22,0.00,0,,337
2013-10-28,73,60,46,55,49,43,100,71,41,30.27,30.22,30.16,10,10,10,6,3,9,0.00,1,,28
2013-10-29,70,63,56,57,55,51,93,77,61,30.32,30.28,30.24,10,10,10,10,5,16,0.00,1,,24
2013-10-30,74,65,56,58,54,48,93,69,44,30.32,30.27,30.22,10,10,6,6,2,9,0.00,1,,39
2013-10-31,77,66,54,68,62,53,93,79,64,30.23,30.15,30.04,10,10,9,17,8,25,0.01,3,Rain,204